Check out our new BloomSky Weather System.

Active alerts


No alerts


Thunder radar  blitzortung!


Rain radar more information rain snow radar


Visit our other weather sites:

Template documentation
and downloads

And another site



Weather Underground History page Text

Daily Summary for February 10, 2017 Units:  English    Metric   Both
« Previous Day
Next Day »
Daily Weekly Monthly Yearly Custom
  High: Low: Average:
Temperature: 76.6 °F 47.8 °F 64 °F
Dew Point: 69.1 °F 42.3 °F 58.4 °F
Humidity: 93 % 69 % 82 %
Wind Speed: 12.0 mph 0.0 mph 3.6 mph
Wind Gust: 18.0 mph - -
Wind:- - SSE
Pressure: 30.28 in 30.05 in -
Precipitation: 0.00 in    
Historical Graphs
 
 
Tabular Data for February 10, 2017
Time Temperature Dew Point Pressure Wind Wind Speed Wind Gust Humidity Rainfall Rate (Hourly)
00:04 48.7 °F 42.3 °F 30.28 in Calm     78 % 0.00 in
00:08 48.7 °F 42.4 °F 30.28 in Calm     79 % 0.00 in
00:14 49.1 °F 42.8 °F 30.28 in Calm     79 % 0.00 in
00:19 49.1 °F 42.8 °F 30.27 in Calm     79 % 0.00 in
00:24 49.3 °F 43.3 °F 30.27 in Calm     80 % 0.00 in
00:29 49.1 °F 42.8 °F 30.27 in Calm     79 % 0.00 in
00:34 49.5 °F 43.5 °F 30.27 in Calm     80 % 0.00 in
00:39 49.8 °F 43.5 °F 30.27 in Calm   1.0 mph 79 % 0.00 in
00:44 50.2 °F 43.5 °F 30.28 in Calm   1.0 mph 78 % 0.00 in
00:49 50.4 °F 43.7 °F 30.28 in Calm   1.0 mph 78 % 0.00 in
00:54 50.4 °F 43.7 °F 30.28 in Calm   1.0 mph 78 % 0.00 in
00:59 50.2 °F 43.5 °F 30.28 in Calm   1.0 mph 78 % 0.00 in
01:04 49.8 °F 43.2 °F 30.28 in Calm   1.0 mph 78 % 0.00 in
01:09 49.5 °F 42.8 °F 30.28 in Calm   1.0 mph 78 % 0.00 in
01:14 48.9 °F 42.6 °F 30.28 in Calm   1.0 mph 79 % 0.00 in
01:19 48.7 °F 42.8 °F 30.28 in Calm     80 % 0.00 in
01:24 48.9 °F 43.3 °F 30.28 in Calm     81 % 0.00 in
01:29 48.9 °F 43.7 °F 30.28 in Calm   1.0 mph 82 % 0.00 in
01:34 49.3 °F 44.1 °F 30.28 in Calm   1.0 mph 82 % 0.00 in
01:39 49.5 °F 44.2 °F 30.28 in Calm   1.0 mph 82 % 0.00 in
01:44 49.6 °F 44.4 °F 30.27 in Calm   1.0 mph 82 % 0.00 in
01:49 50.2 °F 44.6 °F 30.27 in Calm   1.0 mph 81 % 0.00 in
01:54 50.4 °F 44.8 °F 30.27 in Calm   1.0 mph 81 % 0.00 in
01:59 51.1 °F 44.8 °F 30.27 in ESE 1.0 mph 1.0 mph 79 % 0.00 in
02:04 51.6 °F 45.0 °F 30.27 in ESE 2.0 mph 5.0 mph 78 % 0.00 in
02:09 51.8 °F 44.4 °F 30.27 in Calm   5.0 mph 76 % 0.00 in
02:14 51.8 °F 44.1 °F 30.27 in Calm   5.0 mph 75 % 0.00 in
02:19 51.6 °F 43.9 °F 30.27 in Calm   2.0 mph 75 % 0.00 in
02:25 51.4 °F 43.7 °F 30.27 in Calm   1.0 mph 75 % 0.00 in
02:30 51.3 °F 43.5 °F 30.26 in Calm   1.0 mph 75 % 0.00 in
02:35 50.7 °F 43.2 °F 30.26 in Calm   1.0 mph 75 % 0.00 in
02:40 50.5 °F 43.3 °F 30.26 in Calm   1.0 mph 76 % 0.00 in
02:45 50.4 °F 43.3 °F 30.26 in Calm   1.0 mph 77 % 0.00 in
02:50 50.2 °F 43.5 °F 30.26 in Calm   1.0 mph 78 % 0.00 in
02:55 49.8 °F 43.2 °F 30.25 in Calm   1.0 mph 78 % 0.00 in
03:00 49.8 °F 43.5 °F 30.25 in Calm   1.0 mph 79 % 0.00 in
03:05 49.5 °F 42.8 °F 30.25 in Calm   1.0 mph 78 % 0.00 in
03:10 49.1 °F 42.8 °F 30.25 in Calm   1.0 mph 79 % 0.00 in
03:15 48.9 °F 43.0 °F 30.25 in Calm     80 % 0.00 in
03:20 48.6 °F 42.6 °F 30.25 in Calm     80 % 0.00 in
03:25 48.4 °F 42.8 °F 30.25 in Calm     81 % 0.00 in
03:30 48.4 °F 43.2 °F 30.25 in Calm     82 % 0.00 in
03:35 48.2 °F 43.0 °F 30.24 in Calm     82 % 0.00 in
03:40 48.4 °F 43.5 °F 30.24 in Calm     83 % 0.00 in
03:45 48.2 °F 43.0 °F 30.24 in Calm     82 % 0.00 in
03:50 47.8 °F 43.0 °F 30.24 in Calm     83 % 0.00 in
03:55 47.8 °F 43.2 °F 30.24 in Calm   1.0 mph 84 % 0.00 in
04:00 48.0 °F 43.3 °F 30.24 in Calm   1.0 mph 84 % 0.00 in
04:05 48.2 °F 43.3 °F 30.24 in Calm   1.0 mph 83 % 0.00 in
04:11 48.0 °F 43.2 °F 30.23 in Calm     83 % 0.00 in
04:16 48.0 °F 43.2 °F 30.23 in Calm     83 % 0.00 in
04:21 48.0 °F 43.2 °F 30.23 in Calm     83 % 0.00 in
04:26 48.0 °F 43.3 °F 30.23 in Calm     84 % 0.00 in
04:31 48.0 °F 43.3 °F 30.23 in Calm     84 % 0.00 in
04:36 47.8 °F 43.5 °F 30.23 in Calm   1.0 mph 85 % 0.00 in
04:41 47.8 °F 43.5 °F 30.23 in Calm   1.0 mph 85 % 0.00 in
04:46 47.8 °F 43.5 °F 30.23 in Calm   1.0 mph 85 % 0.00 in
04:51 47.8 °F 43.5 °F 30.23 in Calm   1.0 mph 85 % 0.00 in
04:56 47.8 °F 43.5 °F 30.23 in Calm   1.0 mph 85 % 0.00 in
05:01 47.8 °F 43.5 °F 30.23 in Calm   1.0 mph 85 % 0.00 in
05:06 47.8 °F 43.9 °F 30.23 in Calm   1.0 mph 86 % 0.00 in
05:11 48.0 °F 44.1 °F 30.23 in Calm   1.0 mph 86 % 0.00 in
05:16 48.0 °F 44.1 °F 30.23 in Calm   1.0 mph 86 % 0.00 in
05:21 48.4 °F 44.8 °F 30.23 in Calm   1.0 mph 87 % 0.00 in
05:26 48.6 °F 44.8 °F 30.23 in Calm   1.0 mph 87 % 0.00 in
05:31 48.7 °F 45.0 °F 30.23 in Calm   1.0 mph 87 % 0.00 in
05:36 48.7 °F 45.0 °F 30.23 in Calm   1.0 mph 87 % 0.00 in
05:41 48.7 °F 45.3 °F 30.23 in Calm   1.0 mph 88 % 0.00 in
05:46 49.1 °F 45.7 °F 30.23 in Calm   1.0 mph 88 % 0.00 in
05:52 49.5 °F 46.0 °F 30.23 in Calm   1.0 mph 88 % 0.00 in
05:57 50.0 °F 46.6 °F 30.23 in Calm   1.0 mph 88 % 0.00 in
06:02 50.4 °F 46.9 °F 30.23 in Calm   2.0 mph 88 % 0.00 in
06:07 50.9 °F 47.5 °F 30.23 in East 1.0 mph 2.0 mph 88 % 0.00 in
06:12 51.3 °F 47.5 °F 30.23 in Calm   2.0 mph 87 % 0.00 in
06:13 51.3 °F 47.5 °F 30.23 in Calm   2.0 mph 87 % 0.00 in
06:18 51.4 °F 47.7 °F 30.23 in Calm   1.0 mph 87 % 0.00 in
06:23 51.6 °F 47.8 °F 30.23 in Calm   1.0 mph 87 % 0.00 in
06:28 52.0 °F 48.2 °F 30.23 in Calm   2.0 mph 87 % 0.00 in
06:33 52.2 °F 48.4 °F 30.23 in Calm   2.0 mph 87 % 0.00 in
06:38 52.3 °F 48.6 °F 30.23 in Calm   2.0 mph 87 % 0.00 in
06:43 52.5 °F 48.4 °F 30.23 in Calm   2.0 mph 86 % 0.00 in
06:48 52.9 °F 49.1 °F 30.23 in Calm   2.0 mph 87 % 0.00 in
06:53 53.1 °F 49.3 °F 30.23 in East 1.0 mph 1.0 mph 87 % 0.00 in
06:58 53.2 °F 49.5 °F 30.23 in ENE 2.0 mph 2.0 mph 87 % 0.00 in
07:04 53.4 °F 49.3 °F 30.24 in NNW 1.0 mph 2.0 mph 86 % 0.00 in
07:09 53.4 °F 49.3 °F 30.24 in Calm   2.0 mph 86 % 0.00 in
07:14 53.6 °F 49.5 °F 30.24 in Calm   3.0 mph 86 % 0.00 in
07:19 53.8 °F 49.6 °F 30.24 in Calm   3.0 mph 86 % 0.00 in
07:24 53.8 °F 49.6 °F 30.24 in Calm   3.0 mph 86 % 0.00 in
07:29 54.0 °F 49.8 °F 30.24 in Calm   2.0 mph 86 % 0.00 in
07:34 54.0 °F 49.8 °F 30.24 in Calm   2.0 mph 86 % 0.00 in
07:39 54.1 °F 50.0 °F 30.24 in Calm   2.0 mph 86 % 0.00 in
07:44 54.3 °F 50.2 °F 30.24 in Calm   1.0 mph 86 % 0.00 in
07:49 54.7 °F 50.5 °F 30.24 in NE 1.0 mph 3.0 mph 86 % 0.00 in
07:54 54.9 °F 51.1 °F 30.25 in Calm   3.0 mph 87 % 0.00 in
07:59 55.0 °F 50.9 °F 30.25 in Calm   3.0 mph 86 % 0.00 in
08:04 55.2 °F 51.4 °F 30.25 in Calm   1.0 mph 87 % 0.00 in
08:09 55.6 °F 51.4 °F 30.25 in Calm   1.0 mph 86 % 0.00 in
08:14 55.8 °F 52.0 °F 30.25 in Calm   1.0 mph 87 % 0.00 in
08:19 55.9 °F 51.8 °F 30.25 in Calm   1.0 mph 86 % 0.00 in
08:24 56.1 °F 52.3 °F 30.25 in Calm   1.0 mph 87 % 0.00 in
08:29 56.5 °F 52.3 °F 30.25 in Calm   1.0 mph 86 % 0.00 in
08:34 56.7 °F 52.5 °F 30.25 in Calm   2.0 mph 86 % 0.00 in
08:39 56.8 °F 52.7 °F 30.25 in Calm   2.0 mph 86 % 0.00 in
08:44 57.0 °F 52.9 °F 30.25 in Calm   2.0 mph 86 % 0.00 in
08:49 57.4 °F 53.2 °F 30.25 in Calm   2.0 mph 86 % 0.00 in
08:54 57.7 °F 53.6 °F 30.25 in ENE 1.0 mph 2.0 mph 86 % 0.00 in
08:59 58.1 °F 54.0 °F 30.25 in NNE 1.0 mph 2.0 mph 86 % 0.00 in
09:04 58.5 °F 54.3 °F 30.25 in NE 1.0 mph 3.0 mph 86 % 0.00 in
09:10 59.0 °F 55.2 °F 30.25 in Calm   3.0 mph 87 % 0.00 in
09:15 59.4 °F 55.2 °F 30.25 in Calm   3.0 mph 86 % 0.00 in
09:20 59.7 °F 55.6 °F 30.25 in ENE 1.0 mph 3.0 mph 86 % 0.00 in
09:25 59.9 °F 55.8 °F 30.25 in East 1.0 mph 2.0 mph 86 % 0.00 in
09:30 60.3 °F 55.8 °F 30.25 in Calm   2.0 mph 85 % 0.00 in
09:35 60.4 °F 55.9 °F 30.25 in Calm   3.0 mph 85 % 0.00 in
09:40 61.0 °F 56.5 °F 30.25 in Calm   4.0 mph 85 % 0.00 in
09:45 61.2 °F 56.3 °F 30.25 in Calm   5.0 mph 84 % 0.00 in
09:50 61.7 °F 57.2 °F 30.25 in SE 2.0 mph 5.0 mph 85 % 0.00 in
09:55 62.4 °F 57.2 °F 30.25 in ESE 1.0 mph 5.0 mph 83 % 0.00 in
10:00 63.1 °F 57.9 °F 30.25 in East 1.0 mph 5.0 mph 83 % 0.00 in
10:05 64.0 °F 58.5 °F 30.25 in SE 2.0 mph 5.0 mph 82 % 0.00 in
10:10 64.8 °F 58.8 °F 30.25 in SE 3.0 mph 6.0 mph 81 % 0.00 in
10:15 65.5 °F 59.2 °F 30.25 in SE 3.0 mph 6.0 mph 80 % 0.00 in
10:20 66.0 °F 59.4 °F 30.25 in ESE 5.0 mph 10.0 mph 79 % 0.00 in
10:25 66.4 °F 59.4 °F 30.24 in ESE 6.0 mph 10.0 mph 78 % 0.00 in
10:30 66.7 °F 59.7 °F 30.24 in ESE 5.0 mph 10.0 mph 78 % 0.00 in
10:35 67.5 °F 60.1 °F 30.24 in South 8.0 mph 9.0 mph 77 % 0.00 in
10:40 67.8 °F 60.3 °F 30.24 in SSE 4.0 mph 9.0 mph 77 % 0.00 in
10:45 68.5 °F 60.6 °F 30.24 in East 3.0 mph 8.0 mph 76 % 0.00 in
10:50 69.1 °F 61.2 °F 30.24 in SE 2.0 mph 8.0 mph 76 % 0.00 in
10:55 69.8 °F 61.5 °F 30.24 in SE 4.0 mph 8.0 mph 75 % 0.00 in
11:00 70.3 °F 61.7 °F 30.23 in ESE 1.0 mph 8.0 mph 74 % 0.00 in
11:01 70.3 °F 61.7 °F 30.23 in SE 2.0 mph 8.0 mph 74 % 0.00 in
11:06 70.5 °F 61.5 °F 30.23 in SSE 4.0 mph 8.0 mph 73 % 0.00 in
11:08 70.7 °F 61.7 °F 30.23 in South 4.0 mph 8.0 mph 73 % 0.00 in
11:11 70.5 °F 61.5 °F 30.23 in ESE 4.0 mph 8.0 mph 73 % 0.00 in
11:14 70.5 °F 61.9 °F 30.23 in SSE 5.0 mph 8.0 mph 74 % 0.00 in
11:16 70.5 °F 61.9 °F 30.23 in SE 3.0 mph 8.0 mph 74 % 0.00 in
11:21 70.9 °F 62.6 °F 30.23 in South 7.0 mph 9.0 mph 75 % 0.00 in
11:23 71.1 °F 62.4 °F 30.23 in ESE 9.0 mph 9.0 mph 74 % 0.00 in
11:26 71.6 °F 63.3 °F 30.23 in SSE 7.0 mph 10.0 mph 75 % 0.00 in
11:28 71.8 °F 63.0 °F 30.22 in SSE 6.0 mph 10.0 mph 74 % 0.00 in
11:31 72.0 °F 63.1 °F 30.22 in SSE 6.0 mph 12.0 mph 74 % 0.00 in
11:36 72.0 °F 63.1 °F 30.22 in ESE 9.0 mph 13.0 mph 74 % 0.00 in
11:41 72.1 °F 63.3 °F 30.22 in South 8.0 mph 14.0 mph 74 % 0.00 in
11:46 72.1 °F 63.3 °F 30.22 in SSE 6.0 mph 17.0 mph 74 % 0.00 in
11:49 72.1 °F 63.3 °F 30.22 in SSE 7.0 mph 17.0 mph 74 % 0.00 in
11:51 72.1 °F 63.3 °F 30.22 in SSE 9.0 mph 17.0 mph 74 % 0.00 in
11:56 72.1 °F 63.3 °F 30.22 in ESE 10.0 mph 17.0 mph 74 % 0.00 in
12:01 72.5 °F 63.7 °F 30.21 in South 6.0 mph 14.0 mph 74 % 0.00 in
12:06 72.7 °F 63.9 °F 30.21 in SSE 7.0 mph 15.0 mph 74 % 0.00 in
12:11 73.2 °F 64.4 °F 30.20 in SSE 10.0 mph 15.0 mph 74 % 0.00 in
12:16 73.8 °F 64.2 °F 30.20 in SE 8.0 mph 15.0 mph 72 % 0.00 in
12:21 73.8 °F 64.2 °F 30.20 in SSE 7.0 mph 13.0 mph 72 % 0.00 in
12:26 73.8 °F 64.6 °F 30.20 in SSE 6.0 mph 13.0 mph 73 % 0.00 in
12:31 73.8 °F 64.2 °F 30.20 in ESE 10.0 mph 13.0 mph 72 % 0.00 in
12:36 73.6 °F 64.4 °F 30.19 in SSW 9.0 mph 13.0 mph 73 % 0.00 in
12:41 73.6 °F 64.4 °F 30.19 in South 7.0 mph 13.0 mph 73 % 0.00 in
12:46 73.6 °F 64.4 °F 30.19 in ESE 6.0 mph 15.0 mph 73 % 0.00 in
12:51 73.9 °F 64.8 °F 30.18 in SSE 6.0 mph 15.0 mph 73 % 0.00 in
12:56 74.7 °F 65.1 °F 30.18 in SE 11.0 mph 15.0 mph 72 % 0.00 in
13:01 74.8 °F 64.8 °F 30.17 in South 7.0 mph 18.0 mph 71 % 0.00 in
13:06 75.7 °F 65.3 °F 30.17 in SSW 6.0 mph 18.0 mph 70 % 0.00 in
13:11 76.3 °F 65.3 °F 30.17 in SSE 9.0 mph 18.0 mph 69 % 0.00 in
13:16 75.7 °F 64.8 °F 30.16 in East 12.0 mph 13.0 mph 69 % 0.00 in
13:21 75.4 °F 64.9 °F 30.16 in SE 8.0 mph 13.0 mph 70 % 0.00 in
13:26 75.0 °F 64.9 °F 30.16 in ESE 4.0 mph 13.0 mph 71 % 0.00 in
13:31 74.8 °F 64.8 °F 30.16 in SSE 6.0 mph 13.0 mph 71 % 0.00 in
13:36 74.8 °F 65.1 °F 30.16 in SW 9.0 mph 13.0 mph 72 % 0.00 in
13:41 74.7 °F 65.5 °F 30.15 in SSE 8.0 mph 12.0 mph 73 % 0.00 in
13:46 74.7 °F 65.5 °F 30.15 in SE 3.0 mph 12.0 mph 73 % 0.00 in
13:51 75.0 °F 65.8 °F 30.14 in SE 6.0 mph 11.0 mph 73 % 0.00 in
13:56 75.2 °F 65.5 °F 30.14 in ESE 7.0 mph 13.0 mph 72 % 0.00 in
14:02 75.4 °F 65.7 °F 30.14 in SE 7.0 mph 13.0 mph 72 % 0.00 in
14:07 75.4 °F 65.7 °F 30.14 in ESE 10.0 mph 15.0 mph 72 % 0.00 in
14:12 75.6 °F 65.8 °F 30.13 in SE 9.0 mph 16.0 mph 72 % 0.00 in
14:17 75.6 °F 65.8 °F 30.13 in SE 6.0 mph 16.0 mph 72 % 0.00 in
14:22 75.7 °F 66.0 °F 30.13 in SE 11.0 mph 16.0 mph 72 % 0.00 in
14:27 75.7 °F 66.0 °F 30.13 in SSE 4.0 mph 14.0 mph 72 % 0.00 in
14:32 76.1 °F 66.4 °F 30.12 in East 3.0 mph 14.0 mph 72 % 0.00 in
14:37 76.3 °F 66.2 °F 30.12 in SSE 9.0 mph 14.0 mph 71 % 0.00 in
14:42 75.7 °F 65.7 °F 30.12 in East 10.0 mph 13.0 mph 71 % 0.00 in
14:47 75.7 °F 66.0 °F 30.12 in South 10.0 mph 14.0 mph 72 % 0.00 in
14:52 75.7 °F 66.0 °F 30.12 in SSW 9.0 mph 14.0 mph 72 % 0.00 in
14:57 75.7 °F 66.4 °F 30.12 in SSE 4.0 mph 14.0 mph 73 % 0.00 in
15:02 75.7 °F 66.4 °F 30.12 in ESE 11.0 mph 14.0 mph 73 % 0.00 in
15:07 75.7 °F 66.9 °F 30.12 in SE 7.0 mph 14.0 mph 74 % 0.00 in
15:12 75.7 °F 66.4 °F 30.11 in SE 8.0 mph 14.0 mph 73 % 0.00 in
15:17 75.7 °F 66.9 °F 30.11 in SE 5.0 mph 13.0 mph 74 % 0.00 in
15:22 75.7 °F 66.9 °F 30.11 in ESE 7.0 mph 13.0 mph 74 % 0.00 in
15:27 75.7 °F 66.9 °F 30.11 in ESE 6.0 mph 13.0 mph 74 % 0.00 in
15:32 75.7 °F 66.9 °F 30.11 in SE 6.0 mph 13.0 mph 74 % 0.00 in
15:37 76.3 °F 67.5 °F 30.11 in SE 8.0 mph 13.0 mph 74 % 0.00 in
15:42 76.5 °F 67.6 °F 30.10 in SSE 5.0 mph 16.0 mph 74 % 0.00 in
15:47 76.5 °F 67.1 °F 30.10 in ESE 8.0 mph 16.0 mph 73 % 0.00 in
15:52 76.5 °F 67.1 °F 30.10 in SE 9.0 mph 16.0 mph 73 % 0.00 in
15:57 76.3 °F 67.5 °F 30.11 in ESE 6.0 mph 14.0 mph 74 % 0.00 in
16:02 76.1 °F 67.3 °F 30.10 in South 2.0 mph 14.0 mph 74 % 0.00 in
16:07 76.1 °F 67.3 °F 30.10 in SE 6.0 mph 13.0 mph 74 % 0.00 in
16:12 76.1 °F 67.6 °F 30.10 in ESE 6.0 mph 13.0 mph 75 % 0.00 in
16:17 76.3 °F 67.5 °F 30.10 in SSE 7.0 mph 13.0 mph 74 % 0.00 in
16:22 76.3 °F 67.8 °F 30.10 in SE 4.0 mph 11.0 mph 75 % 0.00 in
16:27 76.6 °F 67.6 °F 30.10 in SE 7.0 mph 11.0 mph 74 % 0.00 in
16:32 76.3 °F 67.5 °F 30.10 in South 6.0 mph 14.0 mph 74 % 0.00 in
16:37 75.9 °F 67.5 °F 30.10 in SE 10.0 mph 14.0 mph 75 % 0.00 in
16:42 75.7 °F 67.6 °F 30.10 in SE 8.0 mph 14.0 mph 76 % 0.00 in
16:47 75.6 °F 67.8 °F 30.10 in SSE 7.0 mph 14.0 mph 77 % 0.00 in
16:52 75.2 °F 67.5 °F 30.09 in SSE 8.0 mph 14.0 mph 77 % 0.00 in
16:57 74.8 °F 67.5 °F 30.09 in SE 9.0 mph 13.0 mph 78 % 0.00 in
17:02 74.8 °F 67.8 °F 30.09 in SSE 8.0 mph 13.0 mph 79 % 0.00 in
17:07 74.7 °F 67.6 °F 30.09 in SSE 5.0 mph 13.0 mph 79 % 0.00 in
17:12 74.5 °F 67.5 °F 30.09 in SSE 6.0 mph 13.0 mph 79 % 0.00 in
17:17 74.3 °F 67.6 °F 30.09 in South 7.0 mph 13.0 mph 80 % 0.00 in
17:22 73.9 °F 67.8 °F 30.09 in SSE 6.0 mph 12.0 mph 81 % 0.00 in
17:27 73.8 °F 67.6 °F 30.09 in SSE 3.0 mph 12.0 mph 81 % 0.00 in
17:32 73.6 °F 67.8 °F 30.09 in South 4.0 mph 12.0 mph 82 % 0.00 in
17:37 73.2 °F 67.8 °F 30.09 in South 8.0 mph 12.0 mph 83 % 0.00 in
17:42 73.0 °F 67.6 °F 30.09 in ESE 4.0 mph 12.0 mph 83 % 0.00 in
17:47 73.0 °F 67.6 °F 30.09 in SE 5.0 mph 10.0 mph 83 % 0.00 in
17:52 72.9 °F 67.8 °F 30.09 in SE 7.0 mph 11.0 mph 84 % 0.00 in
17:57 72.7 °F 67.6 °F 30.09 in South 3.0 mph 11.0 mph 84 % 0.00 in
18:02 72.5 °F 67.8 °F 30.09 in SSE 6.0 mph 11.0 mph 85 % 0.00 in
18:07 72.3 °F 67.6 °F 30.08 in South 4.0 mph 10.0 mph 85 % 0.00 in
18:12 72.3 °F 67.6 °F 30.08 in SE 5.0 mph 10.0 mph 85 % 0.00 in
18:17 72.1 °F 67.6 °F 30.09 in SE 4.0 mph 10.0 mph 86 % 0.00 in
18:22 72.0 °F 67.5 °F 30.09 in SSW 2.0 mph 10.0 mph 86 % 0.00 in
18:27 71.8 °F 67.6 °F 30.09 in SSE 2.0 mph 10.0 mph 87 % 0.00 in
18:32 71.8 °F 67.6 °F 30.09 in SSE 4.0 mph 10.0 mph 87 % 0.00 in
18:37 71.8 °F 68.0 °F 30.09 in SSE 8.0 mph 12.0 mph 88 % 0.00 in
18:42 71.8 °F 68.0 °F 30.09 in SE 6.0 mph 13.0 mph 88 % 0.00 in
18:47 71.8 °F 68.0 °F 30.09 in SE 7.0 mph 13.0 mph 88 % 0.00 in
18:52 71.6 °F 67.8 °F 30.08 in SSE 6.0 mph 13.0 mph 88 % 0.00 in
18:57 71.4 °F 68.0 °F 30.08 in SE 7.0 mph 9.0 mph 89 % 0.00 in
19:02 71.2 °F 67.8 °F 30.09 in SE 3.0 mph 8.0 mph 89 % 0.00 in
19:07 71.2 °F 68.2 °F 30.08 in SE 4.0 mph 8.0 mph 90 % 0.00 in
19:12 71.2 °F 68.2 °F 30.08 in South 4.0 mph 8.0 mph 90 % 0.00 in
19:17 71.2 °F 68.2 °F 30.08 in SSE 4.0 mph 8.0 mph 90 % 0.00 in
19:22 71.2 °F 68.2 °F 30.08 in South 6.0 mph 10.0 mph 90 % 0.00 in
19:27 71.2 °F 68.2 °F 30.08 in ESE 7.0 mph 11.0 mph 90 % 0.00 in
19:32 71.2 °F 68.2 °F 30.08 in ESE 3.0 mph 11.0 mph 90 % 0.00 in
19:37 71.1 °F 68.0 °F 30.08 in SE 2.0 mph 11.0 mph 90 % 0.00 in
19:42 71.1 °F 68.0 °F 30.08 in ESE 6.0 mph 8.0 mph 90 % 0.00 in
19:47 71.1 °F 68.4 °F 30.08 in ESE 2.0 mph 8.0 mph 91 % 0.00 in
19:52 71.1 °F 68.4 °F 30.07 in SE 6.0 mph 8.0 mph 91 % 0.00 in
19:57 71.1 °F 68.4 °F 30.07 in SE 9.0 mph 9.0 mph 91 % 0.00 in
20:02 71.1 °F 68.4 °F 30.07 in South 5.0 mph 12.0 mph 91 % 0.00 in
20:07 71.1 °F 68.4 °F 30.07 in SSW 3.0 mph 12.0 mph 91 % 0.00 in
20:12 71.1 °F 68.4 °F 30.07 in SE 4.0 mph 12.0 mph 91 % 0.00 in
20:17 71.1 °F 68.4 °F 30.07 in SE 6.0 mph 13.0 mph 91 % 0.00 in
20:22 71.1 °F 68.4 °F 30.07 in SSE 5.0 mph 13.0 mph 91 % 0.00 in
20:27 71.1 °F 68.4 °F 30.07 in SSW 6.0 mph 13.0 mph 91 % 0.00 in
20:32 71.1 °F 68.4 °F 30.07 in SSW 5.0 mph 10.0 mph 91 % 0.00 in
20:37 70.9 °F 68.2 °F 30.07 in SSW 6.0 mph 10.0 mph 91 % 0.00 in
20:42 70.9 °F 68.4 °F 30.07 in South 6.0 mph 12.0 mph 92 % 0.00 in
20:47 70.9 °F 68.4 °F 30.07 in South 5.0 mph 12.0 mph 92 % 0.00 in
20:52 70.9 °F 68.4 °F 30.07 in SE 7.0 mph 12.0 mph 92 % 0.00 in
20:57 70.9 °F 68.4 °F 30.07 in SSE 7.0 mph 8.0 mph 92 % 0.00 in
21:02 70.9 °F 68.4 °F 30.07 in ESE 5.0 mph 11.0 mph 92 % 0.00 in
21:07 70.7 °F 68.2 °F 30.07 in SSE 5.0 mph 11.0 mph 92 % 0.00 in
21:12 70.7 °F 68.2 °F 30.07 in SSE 6.0 mph 11.0 mph 92 % 0.00 in
21:17 70.7 °F 68.5 °F 30.07 in South 1.0 mph 11.0 mph 93 % 0.00 in
21:22 70.7 °F 68.5 °F 30.07 in SE 3.0 mph 11.0 mph 93 % 0.00 in
21:27 70.7 °F 68.5 °F 30.07 in South 4.0 mph 11.0 mph 93 % 0.00 in
21:32 70.9 °F 68.7 °F 30.07 in SE 4.0 mph 8.0 mph 93 % 0.00 in
21:37 70.9 °F 68.7 °F 30.07 in ESE 6.0 mph 9.0 mph 93 % 0.00 in
21:42 70.9 °F 68.7 °F 30.07 in South 5.0 mph 9.0 mph 93 % 0.00 in
21:47 70.9 °F 68.7 °F 30.07 in SE 4.0 mph 9.0 mph 93 % 0.00 in
21:52 70.9 °F 68.7 °F 30.06 in SSE 4.0 mph 9.0 mph 93 % 0.00 in
21:57 70.9 °F 68.7 °F 30.06 in SE 8.0 mph 8.0 mph 93 % 0.00 in
22:02 70.9 °F 68.7 °F 30.06 in SW 2.0 mph 13.0 mph 93 % 0.00 in
22:07 70.9 °F 68.7 °F 30.06 in SSE 4.0 mph 13.0 mph 93 % 0.00 in
22:12 70.9 °F 68.7 °F 30.06 in SE 5.0 mph 13.0 mph 93 % 0.00 in
22:17 70.9 °F 68.7 °F 30.06 in South 5.0 mph 10.0 mph 93 % 0.00 in
22:22 70.9 °F 68.7 °F 30.06 in East 5.0 mph 9.0 mph 93 % 0.00 in
22:27 70.9 °F 68.7 °F 30.06 in South 8.0 mph 12.0 mph 93 % 0.00 in
22:32 71.1 °F 68.9 °F 30.06 in SW 12.0 mph 12.0 mph 93 % 0.00 in
22:37 71.1 °F 68.9 °F 30.06 in SSE 5.0 mph 12.0 mph 93 % 0.00 in
22:42 71.1 °F 68.5 °F 30.06 in SSE 6.0 mph 12.0 mph 92 % 0.00 in
22:47 71.1 °F 68.5 °F 30.05 in SSE 7.0 mph 13.0 mph 92 % 0.00 in
22:52 71.1 °F 68.5 °F 30.05 in SSE 5.0 mph 13.0 mph 92 % 0.00 in
22:57 71.2 °F 68.7 °F 30.06 in South 4.0 mph 13.0 mph 92 % 0.00 in
23:02 71.1 °F 68.5 °F 30.06 in South 5.0 mph 12.0 mph 92 % 0.00 in
23:07 71.1 °F 68.9 °F 30.06 in South 8.0 mph 9.0 mph 93 % 0.00 in
23:12 71.1 °F 68.9 °F 30.05 in SE 7.0 mph 9.0 mph 93 % 0.00 in
23:17 71.1 °F 68.9 °F 30.05 in SW 4.0 mph 9.0 mph 93 % 0.00 in
23:22 71.1 °F 68.9 °F 30.05 in South 4.0 mph 9.0 mph 93 % 0.00 in
23:28 71.1 °F 68.9 °F 30.05 in South 4.0 mph 11.0 mph 93 % 0.00 in
23:33 71.1 °F 68.9 °F 30.05 in SSW 10.0 mph 12.0 mph 93 % 0.00 in
23:38 71.2 °F 69.1 °F 30.05 in SE 5.0 mph 12.0 mph 93 % 0.00 in
23:43 71.1 °F 68.9 °F 30.05 in SE 3.0 mph 12.0 mph 93 % 0.00 in
23:48 71.1 °F 68.9 °F 30.05 in SSW 4.0 mph 11.0 mph 93 % 0.00 in
23:53 71.1 °F 68.9 °F 30.05 in SSE 6.0 mph 11.0 mph 93 % 0.00 in
23:58 71.1 °F 68.9 °F 30.05 in SSW 4.0 mph 11.0 mph 93 % 0.00 in
Spring, Texas: Villages of Bridgestone
Compliments of Weather Underground - 2.75 mb

Script developed by  Jim McMurry - jmcmurry@mwt.net Adapted for the template by  Wim van der Kuil - Leuven-Template.eu

You find our weather info also at:

UK Metoffice

WeatherCloud

Weather Underground

Mid-South Weather Network

AWEKAS

Citizen Weather Observer Program (CWOP)

HAMweather, WeatherForYou, PWS Weather

Equipment we use:

Weather-station
Davis Vantage Vue

Weather-program
Meteohub

Weather-server
Debian 7.9 x86 (Guest)

Provider
DreamHost

Davis Vantage Vue

Meteohub

Debian 7.9 x86 (Guest)

DreamHost